Погода в Щирке

Польша     49°42′11″N   19°00′14″E
темп.,
°C
ветер,
м/с
пор.,
м/с
влажн.,
%
обл.,
%
осадки,
мм/ч
давл.,
гПа
погр.,
м
2 марта, вт
вт201:000ююз12870 0.0 103723
04:000ююз22820 0.0 103525
07:00+1ююз23740 0.0 103632
10:00+7зюз12500 0.0 1034244
13:00+10зсз22450 0.0 1034480
16:00+9зсз12620 0.0 103263
19:00+4ююз12740 0.0 103322
22:00+3ююз22710 0.0 103422
3 марта, ср
ср301:00+3ю11690 0.0 103422
04:00+2ю22680 0.0 103222
07:00+2ююз22670 0.0 103222
10:00+9юз11500 0.0 1030188
13:00+13зсз12420 0.0 1028552
16:00+11з12560 0.0 1026105
19:00+6ююз237029 0.0 102645
22:00+4ююз347829 0.0 102578
4 марта, чт
чт401:00+3ююз458215 0.0 1023102
04:00+2ююз458567 0.0 102198
07:00+2ююз458450 0.0 1020107
10:00+8юз386378 0.0 1017491
13:00+11з585385 0.0 10151023
16:00+10зюз486074 0.0 1012950
19:00+6ююз367583 0.0 1012171
22:00+6юз51280100 0.4 1011826
5 марта, пт
пт501:00+5з31095100 3.3 1010729
04:00+3сз2596100 3.4 1010402
07:00+1сз1298100 6.4 1012147
10:000с5798100 5.9 1015521
13:000с4696100 9.3 1018597
16:00−1с4684100 1.2 1019815
19:00−3ссз2379100 1.7 102388
22:00−5зсз117556 0.0 102521
6 марта, сб
сб601:00−5зюз228055 0.0 102632
04:00−5зюз239057 0.1 102771
07:00−5зюз268863 0.1 1028306
10:00−2сз576950 0.2 10291436
13:00−1сз575674 0.3 10281640
16:00−1сз35520 0.0 10281453
19:00−4ююз23690 0.0 102833
22:00−4ююз35720 0.0 1029117